[[{"header":{"parameterUnit":"m.s-1","parameterCategory":1,"la1":30.2991,"la2":30.254,"lo1":-89.0895,"lo2":-89.0444,"dy":0.0017,"dx":0.0017,"nx":28,"ny":28,"refTime":"2023-10-19T21:00:00:Z","depth":0,"parameterNumber":2,"parameterNumberName":"U-component_of_WINDS"},"data":[0,0,0,0,0,0,0,0,0,0,0,0,0,0,0,0,0,0,0,0,0,0,0,0,0,0,0,0,0,0,0,0,0,0,0,0,0,0,0,0,0,0,0,0,0,0,0,0,0,0,0,0,0,0,0,0,0,0,-1.5158,-1.5157,0,-1.5106,-1.5105,-1.5105,-1.5034,-1.5033,-1.5032,-1.5031,-1.4977,-1.4977,-1.4976,0,0,0,0,0,0,0,0,0,0,0,0,0,-1.5197,-1.5196,-1.5158,-1.5157,-1.5156,-1.5106,-1.5105,-1.5105,-1.5034,-1.5033,-1.5032,-1.503,-1.4977,-1.4977,-1.4976,0,0,0,0,0,0,0,0,0,0,0,0,0,-1.5166,-1.5196,-1.5158,-1.5115,-1.5111,-1.5106,-1.5105,-1.5104,-1.5035,-1.5033,-1.5031,-1.503,-1.4977,-1.4977,-1.4976,-1.5008,0,0,-1.4975,-1.4974,0,0,0,0,0,0,0,0,-1.5168,-1.5164,-1.5122,-1.5118,-1.5113,-1.5075,-1.5099,-1.5072,-1.5035,-1.5064,-1.5031,-1.5029,-1.5011,-1.5007,-1.5002,-1.5006,-1.5003,-1.4975,-1.4974,-1.4974,-1.4974,0,0,0,0,0,0,0,-1.517,-1.5166,-1.5137,-1.5122,-1.5116,-1.5099,-1.5093,-1.5094,-1.5048,-1.5061,-1.5056,-1.5051,-1.5008,-1.5002,-1.5,-1.5003,-1.4975,-1.4974,-1.4974,-1.4974,-1.5032,-1.5034,0,0,0,0,0,0,-1.5178,-1.5169,-1.5139,-1.5136,-1.5137,-1.51,-1.5093,-1.5089,-1.5048,-1.504,-1.5052,-1.5048,-1.5004,-1.5,-1.4998,-1.5032,-1.4974,-1.4974,-1.4973,-1.503,-1.5032,-1.5034,0,0,0,0,0,0,-1.518,-1.5176,-1.5141,-1.5151,-1.5145,-1.5101,-1.5097,-1.5089,-1.5083,-1.5041,-1.5032,-1.5055,-1.5002,-1.4998,-1.5006,-1.5029,-1.4973,-1.4973,-1.5028,-1.5031,-1.5033,-1.5102,0,0,0,0,0,0,-1.5181,-1.5177,-1.5188,-1.5151,-1.5145,-1.515,-1.5099,-1.5089,-1.5082,-1.5076,-1.5041,-1.5033,-1.5001,-1.5008,-1.5006,-1.5027,-1.4972,-1.5025,-1.5029,-1.5032,-1.5097,-1.5107,-1.5115,0,0,0,0,0,-1.5183,-1.5209,-1.5189,-1.5186,-1.5158,-1.5152,-1.5148,-1.511,-1.5084,-1.5095,-1.5069,-1.5034,-1.5028,-1.5009,-1.5007,-1.5028,-1.5024,-1.5028,-1.5032,-1.5093,-1.5105,-1.5114,0,0,0,0,0,0,-1.5249,-1.5204,-1.5181,-1.5197,-1.5179,-1.514,-1.5152,-1.5123,-1.5111,-1.5106,-1.5059,-1.5052,-1.5066,-1.5048,-1.5028,-1.5058,-1.5021,-1.5025,-1.5068,-1.5079,-1.5087,-1.509,-1.4972,0,0,0,0,0,-1.5266,-1.5265,-1.5225,-1.5243,-1.5235,-1.5196,-1.5192,-1.5165,-1.5144,-1.5136,-1.511,-1.5091,-1.5085,-1.5081,-1.5073,-1.5096,-1.5087,-1.511,-1.5119,-1.5126,-1.5129,-1.514,-1.5149,-1.5048,-1.5048,-1.5048,0,0,-1.53,-1.5275,-1.5277,-1.5256,-1.5239,-1.5239,-1.519,-1.5191,-1.5191,-1.5136,-1.5141,-1.5123,-1.5099,-1.5114,-1.512,-1.51,-1.5156,-1.5131,-1.5137,-1.5136,-1.5145,-1.5155,-1.5163,-1.5051,-1.505,-1.505,0,0,-1.5361,-1.5343,-1.5355,-1.534,-1.5315,-1.5289,-1.5293,-1.5259,-1.5244,-1.525,-1.5209,-1.5208,-1.5198,-1.5183,-1.5174,-1.5234,-1.5201,-1.5233,-1.5277,-1.5288,-1.5296,-1.5303,-1.5323,-1.5331,-1.5237,-1.5237,-1.5237,0,-1.5406,-1.5404,-1.5365,-1.537,-1.5362,-1.5314,-1.5327,-1.5314,-1.5288,-1.5284,-1.5263,-1.525,-1.5231,-1.5242,-1.5257,-1.5252,-1.5254,-1.5235,-1.5298,-1.5304,-1.531,-1.5329,-1.5337,-1.5241,-1.524,-1.524,-1.524,0,-1.546,-1.546,-1.5473,-1.545,-1.5444,-1.5453,-1.5416,-1.5415,-1.539,-1.5366,-1.5373,-1.5349,-1.5336,-1.5337,-1.5312,-1.5346,-1.5334,-1.5307,-1.5267,-1.5324,-1.5341,-1.5348,-1.5246,-1.5245,-1.5244,-1.5243,0,0,-1.5557,-1.5515,-1.552,-1.551,-1.5481,-1.5479,-1.5488,-1.5475,-1.5474,-1.546,-1.5464,-1.5459,-1.5434,-1.5424,-1.5397,-1.5407,-1.5455,-1.5378,-1.5377,-1.5392,-1.549,-1.5509,-1.5518,-1.5436,-1.5437,-1.5438,-1.5492,0,-1.5611,-1.562,-1.5588,-1.5605,-1.5605,-1.5562,-1.5568,-1.5552,-1.5531,-1.5528,-1.5506,-1.5502,-1.547,-1.5463,-1.5472,-1.5448,-1.5474,-1.5444,-1.5438,-1.5439,-1.5442,-1.5527,-1.5546,-1.5598,-1.5498,-1.5499,-1.55,0,-1.5673,-1.5662,-1.5681,-1.5652,-1.565,-1.5657,-1.5643,-1.5642,-1.5623,-1.5607,-1.5598,-1.5568,-1.5574,-1.554,-1.5547,-1.5527,-1.5524,-1.5513,-1.5514,-1.5509,-1.547,-1.5522,-1.5614,-1.5621,-1.551,-1.5509,-1.5509,0,-1.574,-1.5731,-1.574,-1.5733,-1.57,-1.5706,-1.5692,-1.5672,-1.5667,-1.5656,-1.5653,-1.5643,-1.5637,-1.563,-1.5599,-1.5577,-1.561,-1.5573,-1.5596,-1.5597,-1.5602,-1.5601,-1.5692,-1.5605,-1.5605,-1.5605,-1.5605,0,-1.5802,-1.5814,-1.577,-1.5775,-1.5788,-1.5752,-1.5766,-1.5749,-1.5732,-1.5733,-1.5697,-1.5699,-1.5659,-1.5657,-1.5633,-1.5643,-1.5641,-1.5628,-1.5621,-1.563,-1.5631,-1.5624,-1.5619,-1.5607,-1.5606,-1.5606,-1.5606,0,-1.5876,-1.5848,-1.5855,-1.5825,-1.5818,-1.5829,-1.5803,-1.5807,-1.5786,-1.5789,-1.5788,-1.5754,-1.5751,-1.572,-1.5709,-1.5693,-1.5711,-1.5699,-1.5717,-1.5712,-1.5737,-1.5734,-1.5823,-1.5832,-1.5743,-1.5744,-1.5744,0,-1.5916,-1.5924,-1.5896,-1.5895,-1.5883,-1.5882,-1.5878,-1.5844,-1.584,-1.5821,-1.5828,-1.5822,-1.5814,-1.5811,-1.5786,-1.5778,-1.5764,-1.5796,-1.5762,-1.5771,-1.5762,-1.576,-1.5761,-1.5802,-1.5803,-1.5804,-1.5805,0,-1.5988,-1.5974,-1.5969,-1.596,-1.5956,-1.5947,-1.5935,-1.5937,-1.5899,-1.5898,-1.5894,-1.5889,-1.588,-1.5873,-1.5862,-1.5849,-1.582,-1.5816,-1.5821,-1.5828,-1.5838,-1.5831,-1.5734,-1.5813,-1.5812,-1.5812,-1.5811,-1.5811,-1.6045,-1.6051,-1.6032,-1.6028,-1.6016,-1.6007,-1.601,-1.599,-1.5987,-1.5976,-1.5957,-1.5957,-1.594,-1.5921,-1.5911,-1.591,-1.5893,-1.59,-1.5902,-1.5903,-1.5907,-1.5841,-1.5908,-1.5908,-1.5908,-1.5907,-1.5907,0,-1.6113,-1.61,-1.6097,-1.6083,-1.608,-1.6057,-1.6043,-1.6042,-1.6042,-1.6029,-1.6024,-1.602,-1.6016,-1.5992,-1.5984,-1.5988,-1.5975,-1.5987,-1.5985,-1.5982,-1.5924,-1.5919,-1.5998,-1.5998,-1.5998,-1.5998,-1.5998,-1.5998,-1.6149,-1.6157,-1.6142,-1.6145,-1.6131,-1.613,-1.6125,-1.6117,-1.6106,-1.6104,-1.61,-1.6085,-1.6068,-1.606,-1.6055,-1.6048,-1.6046,-1.6062,-1.6051,-1.5995,-1.5986,-1.5978,-1.5973,-1.6062,-1.6062,-1.6109,-1.6109,-1.611]},{"header":{"parameterUnit":"m.s-1","parameterCategory":1,"la1":30.2991,"la2":30.254,"lo1":-89.0895,"lo2":-89.0444,"dy":0.0017,"dx":0.0017,"nx":28,"ny":28,"refTime":"2023-10-19T21:00:00:Z","depth":0,"parameterNumber":3,"parameterNumberName":"V-component_of_WINDS"},"data":[0,0,0,0,0,0,0,0,0,0,0,0,0,0,0,0,0,0,0,0,0,0,0,0,0,0,0,0,0,0,0,0,0,0,0,0,0,0,0,0,0,0,0,0,0,0,0,0,0,0,0,0,0,0,0,0,0,0,2.2436,2.2436,0,2.2482,2.2482,2.2483,2.2558,2.2559,2.2561,2.2562,2.2603,2.2603,2.2603,0,0,0,0,0,0,0,0,0,0,0,0,0,2.2409,2.2409,2.2436,2.2436,2.2437,2.2482,2.2482,2.2483,2.2558,2.2559,2.2561,2.2563,2.2604,2.2603,2.2603,0,0,0,0,0,0,0,0,0,0,0,0,0,2.2434,2.2409,2.2436,2.248,2.2484,2.2481,2.2482,2.2483,2.2557,2.2559,2.2561,2.2563,2.2604,2.2603,2.2603,2.2559,0,0,2.2602,2.2602,0,0,0,0,0,0,0,0,2.2433,2.2435,2.2473,2.2477,2.2482,2.2516,2.2488,2.2508,2.2557,2.2529,2.2562,2.2564,2.2572,2.2575,2.2579,2.2561,2.2563,2.2602,2.2602,2.2602,2.2602,0,0,0,0,0,0,0,2.2431,2.2433,2.2454,2.2473,2.2479,2.2496,2.2502,2.2492,2.2538,2.2532,2.2537,2.2542,2.2575,2.2579,2.258,2.2564,2.2602,2.2602,2.2602,2.2602,2.2514,2.2512,0,0,0,0,0,0,2.2423,2.2431,2.2452,2.2455,2.2462,2.2495,2.2501,2.2503,2.2539,2.2546,2.254,2.2546,2.2578,2.258,2.2582,2.2534,2.2602,2.2601,2.2601,2.2516,2.2513,2.2511,0,0,0,0,0,0,2.2422,2.2424,2.245,2.2445,2.245,2.2493,2.2494,2.2503,2.2507,2.2545,2.2553,2.2536,2.258,2.2582,2.2565,2.2536,2.2601,2.2601,2.2518,2.2515,2.2512,2.2436,0,0,0,0,0,0,2.2421,2.2424,2.2408,2.2444,2.245,2.2434,2.2492,2.2502,2.2506,2.2514,2.2543,2.255,2.2582,2.2565,2.2565,2.2537,2.2601,2.2521,2.2517,2.2513,2.2442,2.2431,2.2422,0,0,0,0,0,2.242,2.2383,2.2407,2.2409,2.2432,2.2432,2.2435,2.2474,2.2504,2.2488,2.2513,2.2549,2.254,2.2563,2.2563,2.2535,2.2523,2.2518,2.2513,2.2446,2.2433,2.2422,0,0,0,0,0,0,2.2341,2.2389,2.2415,2.239,2.2407,2.2445,2.2426,2.2459,2.2466,2.2472,2.2519,2.2525,2.2501,2.2516,2.2541,2.2495,2.2537,2.2532,2.2486,2.2474,2.2464,2.246,2.2601,0,0,0,0,0,2.2321,2.2318,2.236,2.2333,2.2341,2.2382,2.2383,2.2412,2.2431,2.2437,2.2461,2.2476,2.2477,2.2476,2.2479,2.2445,2.2452,2.2425,2.2415,2.2407,2.2402,2.2385,2.2374,2.2495,2.2495,2.2495,0,0,2.2278,2.2304,2.23,2.2318,2.2335,2.233,2.2387,2.2379,2.2377,2.2436,2.2422,2.2439,2.2459,2.2434,2.2423,2.2445,2.237,2.2401,2.2394,2.2393,2.2379,2.2368,2.2358,2.2492,2.2492,2.2493,0,0,2.2199,2.2219,2.2199,2.2215,2.224,2.2268,2.2263,2.2297,2.2312,2.2299,2.2344,2.234,2.234,2.2353,2.2359,2.2287,2.232,2.2286,2.2234,2.2217,2.2208,2.22,2.2174,2.2164,2.2281,2.2281,2.2281,0,2.2143,2.214,2.2184,2.2175,2.2182,2.2238,2.2218,2.2231,2.2254,2.2257,2.2282,2.2284,2.2301,2.228,2.2262,2.2266,2.2261,2.2282,2.2206,2.2198,2.2191,2.2167,2.2157,2.2276,2.2277,2.2277,2.2278,0,2.2069,2.2066,2.2047,2.2071,2.2076,2.2061,2.2103,2.2102,2.2131,2.2156,2.2142,2.2165,2.2174,2.2171,2.2198,2.2153,2.2166,2.2198,2.2241,2.2175,2.2153,2.2144,2.227,2.2272,2.2273,2.2274,0,0,2.194,2.1991,2.1983,2.1995,2.2028,2.2025,2.2013,2.2024,2.2022,2.2037,2.2027,2.2027,2.2057,2.2064,2.2094,2.2079,2.2021,2.2113,2.2114,2.2095,2.1973,2.1949,2.1938,2.2043,2.2042,2.204,2.1972,0,2.1867,2.1851,2.1892,2.1865,2.1863,2.1917,2.1906,2.1924,2.1947,2.1948,2.1973,2.1973,2.2012,2.2017,2.2005,2.203,2.1997,2.2036,2.2034,2.2033,2.2027,2.1927,2.1901,2.1835,2.1963,2.1962,2.1961,0,2.178,2.1793,2.1766,2.1802,2.1802,2.1792,2.1806,2.1806,2.1828,2.1846,2.1855,2.189,2.188,2.1922,2.1908,2.1933,2.1935,2.1947,2.1946,2.1947,2.1993,2.1924,2.1815,2.1804,2.1948,2.1949,2.195,0,2.1689,2.1699,2.1685,2.1694,2.1734,2.1726,2.1742,2.1766,2.1771,2.1782,2.1786,2.1795,2.18,2.1805,2.1842,2.1869,2.1823,2.1868,2.1837,2.1836,2.1824,2.1825,2.1713,2.1826,2.1826,2.1826,2.1826,0,2.1603,2.1585,2.1645,2.1636,2.1617,2.1664,2.1643,2.1665,2.1686,2.1681,2.1728,2.1722,2.1771,2.177,2.1799,2.1783,2.1784,2.1798,2.1806,2.1794,2.1792,2.1795,2.1801,2.1823,2.1824,2.1824,2.1825,0,2.1497,2.1537,2.1525,2.1566,2.1576,2.156,2.1594,2.1587,2.1614,2.1608,2.1609,2.1651,2.1653,2.169,2.1699,2.1718,2.1691,2.1707,2.1684,2.1689,2.1656,2.1659,2.1542,2.1529,2.165,2.1649,2.1648,0,2.144,2.1428,2.1468,2.147,2.1484,2.1486,2.1491,2.1537,2.154,2.1565,2.1555,2.1561,2.1569,2.1569,2.1599,2.1607,2.1623,2.1582,2.1624,2.1613,2.1623,2.1623,2.1622,2.1573,2.1571,2.157,2.1569,0,2.1334,2.1355,2.1362,2.1377,2.1382,2.1395,2.1411,2.1409,2.1459,2.146,2.1464,2.147,2.1481,2.1487,2.15,2.1515,2.155,2.1556,2.1549,2.1536,2.1524,2.153,2.166,2.1558,2.1559,2.156,2.156,2.1561,2.1251,2.1243,2.1271,2.1278,2.1295,2.1309,2.1305,2.1332,2.1337,2.1351,2.1377,2.1377,2.14,2.1422,2.1434,2.1434,2.1455,2.1445,2.1442,2.1439,2.1433,2.1524,2.1436,2.1437,2.1437,2.1437,2.1438,0,2.1148,2.117,2.1175,2.1197,2.1202,2.1237,2.1256,2.1257,2.1258,2.1277,2.1284,2.1289,2.1295,2.1326,2.1335,2.1329,2.1345,2.133,2.133,2.1334,2.1413,2.1418,2.1317,2.1317,2.1317,2.1317,2.1317,2.1317,2.1095,2.1084,2.1108,2.1106,2.1127,2.1129,2.1137,2.115,2.1165,2.1169,2.1175,2.1197,2.1221,2.1232,2.1239,2.1248,2.1249,2.1228,2.1242,2.1316,2.1328,2.1339,2.1344,2.1228,2.1228,2.1163,2.1162,2.1162]}]]